Weather reports worldwide

Advertisment
Karlstad Flygplats, Sweden (2418): temperature & dewpoint: 06.12.2019 16:00:00 - 12.12.2019 16:00:00 (CET)Karlstad Flygplats, Sweden (2418): wind speed: 06.12.2019 16:00:00 - 12.12.2019 16:00:00 (CET)Karlstad Flygplats, Sweden (2418): wind direction: 06.12.2019 16:00:00 - 12.12.2019 16:00:00 (CET)Karlstad Flygplats, Sweden (2418): reduced air pressure: 06.12.2019 16:00:00 - 12.12.2019 16:00:00 (CET)Karlstad Flygplats, Sweden (2418): visibility: 06.12.2019 16:00:00 - 12.12.2019 16:00:00 (CET)
Date & Time tt [°C] td [°C] ff [km/h] ff [kn] dd ppp [hPa] vv [km]
12.12.2019 16:00:00 3,5 3,4 7 4 SSE 994,0 21
12.12.2019 15:00:00 3,6 3,5 7 4 SSE 994,4 19
12.12.2019 14:00:00 3,7 3,3 11 6 SSE 994,7 19
12.12.2019 13:00:00 3,9 3,5 11 6 SSE 995,3 20
12.12.2019 12:00:00 4,1 3,5 7 4 S 996,0 18
12.12.2019 11:00:00 4,0 3,4 7 4 SSW 996,7 18
12.12.2019 10:00:00 4,0 3,4 11 6 S 997,6 17
12.12.2019 09:00:00 3,8 3,4 14 8 S 997,6 14
12.12.2019 08:00:00 3,8 3,4 11 6 S 997,6 14
12.12.2019 07:00:00 4,1 3,5 14 8 S 998,0 13
12.12.2019 06:00:00 3,7 3,4 14 8 S 997,9 12
12.12.2019 05:00:00 3,7 3,1 11 6 S 998,3 11
12.12.2019 04:00:00 - - - - - - -
12.12.2019 03:00:00 4,2 3,6 14 8 S 999,3 14
12.12.2019 02:00:00 4,1 3,5 11 6 S 999,4 13
12.12.2019 01:00:00 4,4 3,8 11 6 S 999,7 13
12.12.2019 00:00:00 4,6 4,0 14 8 S 999,9 13
11.12.2019 23:00:00 4,5 4,1 14 8 S 1000,1 14
11.12.2019 22:00:00 4,5 3,9 14 8 S 1000,3 14
11.12.2019 21:00:00 4,5 4,1 14 8 S 1000,3 13
11.12.2019 20:00:00 4,8 4,1 14 8 S 1000,6 12
11.12.2019 19:00:00 4,7 4,1 14 8 S 1000,5 14
11.12.2019 18:00:00 4,9 4,2 18 10 S 1000,3 14
11.12.2019 17:00:00 5,1 4,4 18 10 S 1000,3 13
11.12.2019 16:00:00 5,4 4,7 18 10 S 1000,0 14
11.12.2019 15:00:00 5,4 4,8 14 8 S 999,8 14
11.12.2019 14:00:00 5,8 4,8 14 8 S 999,2 14
11.12.2019 13:00:00 5,6 4,9 18 10 S 998,7 16
11.12.2019 12:00:00 5,4 4,8 18 10 S 998,6 16
11.12.2019 11:00:00 5,2 4,6 22 12 S 998,2 28
11.12.2019 10:00:00 4,4 4,0 22 12 S 997,2 50
11.12.2019 09:00:00 3,8 3,4 32 18 S 996,6 50
11.12.2019 08:00:00 3,2 2,6 32 18 S 995,6 50
11.12.2019 07:00:00 3,2 2,3 32 18 S 995,3 30
11.12.2019 06:00:00 3,2 2,3 32 18 S 995,4 29
11.12.2019 05:00:00 3,3 2,1 32 18 S 995,6 12
11.12.2019 04:00:00 2,8 1,9 29 16 S 996,7 21
11.12.2019 03:00:00 2,3 1,4 25 14 S 998,1 8
11.12.2019 02:00:00 2,8 0,5 32 18 S 999,3 11
11.12.2019 01:00:00 3,0 0,2 29 16 S 1000,2 29
11.12.2019 00:00:00 3,0 0,2 29 16 SSE 1002,3 40
10.12.2019 23:00:00 2,6 0,0 29 16 SSE 1004,4 40
10.12.2019 22:00:00 2,6 0,7 25 14 SSE 1005,9 35
10.12.2019 21:00:00 2,3 1,1 22 12 SSE 1007,4 40
10.12.2019 20:00:00 1,8 0,2 22 12 S 1008,7 50
10.12.2019 19:00:00 1,2 -0,6 22 12 S 1009,6 45
10.12.2019 18:00:00 1,2 -1,7 14 8 SSE 1010,8 50
10.12.2019 17:00:00 0,4 -3,3 14 8 S 1012,4 50
10.12.2019 16:00:00 -0,4 -2,6 11 6 S 1013,6 50
10.12.2019 15:00:00 -3,8 -4,6 11 6 SE 1014,4 50
10.12.2019 14:00:00 -3,2 -4,5 4 2 SE 1014,9 45
10.12.2019 13:00:00 -3,9 -5,2 7 4 S 1015,3 50
10.12.2019 12:00:00 -3,4 -5,0 7 4 SW 1015,2 50
10.12.2019 11:00:00 -4,7 -5,9 7 4 SW 1015,2 45
10.12.2019 10:00:00 -4,7 -5,9 4 2 NNW 1014,5 50
10.12.2019 09:00:00 -4,9 -5,9 4 2 W 1014,4 50
10.12.2019 08:00:00 -4,8 -5,9 7 4 W 1013,4 50
10.12.2019 07:00:00 -4,2 -5,7 11 6 WNW 1012,4 50
10.12.2019 06:00:00 -3,9 -5,7 11 6 W 1011,5 50
10.12.2019 05:00:00 -4,2 -5,9 11 6 W 1010,4 50
10.12.2019 04:00:00 -4,1 -5,6 11 6 WNW 1009,5 50
10.12.2019 03:00:00 -3,7 -5,5 11 6 WNW 1008,6 50
10.12.2019 02:00:00 -3,6 -5,0 11 6 WNW 1007,4 50
10.12.2019 01:00:00 -3,1 -5,1 14 8 NW 1005,6 50
10.12.2019 00:00:00 -2,8 -4,7 14 8 NW 1003,7 50
09.12.2019 23:00:00 -2,2 -3,9 18 10 NNW 1001,8 50
09.12.2019 22:00:00 -1,2 -3,1 22 12 NNW 999,7 50
09.12.2019 21:00:00 -0,9 -2,2 25 14 N 997,3 50
09.12.2019 20:00:00 -0,7 -1,4 25 14 NNW 994,9 45
09.12.2019 19:00:00 -0,4 -1,1 29 16 N 992,6 50
09.12.2019 18:00:00 -0,3 -0,9 29 16 N 990,4 35
09.12.2019 17:00:00 -0,5 -0,5 32 18 N 988,4 0,7
09.12.2019 16:00:00 0,0 0,0 29 16 N 986,3 3,1
09.12.2019 15:00:00 0,3 0,2 25 14 N 984,3 11
09.12.2019 14:00:00 1,0 0,9 22 12 N 982,9 10
09.12.2019 13:00:00 5,4 4,5 14 8 SSW 981,2 6
09.12.2019 12:00:00 5,3 4,4 18 10 SSW 980,7 30
09.12.2019 11:00:00 5,1 4,5 18 10 SSW 980,3 15
09.12.2019 10:00:00 5,1 4,7 18 10 SSW 979,6 17
09.12.2019 09:00:00 4,9 4,0 14 8 S 978,6 16
09.12.2019 08:00:00 5,1 4,1 18 10 S 977,7 19
09.12.2019 07:00:00 5,1 4,1 22 12 SSW 977,1 10
09.12.2019 06:00:00 5,4 3,4 18 10 SSW 976,4 30
09.12.2019 05:00:00 5,3 3,3 18 10 SSW 976,0 22
09.12.2019 04:00:00 5,1 3,1 22 12 SSW 975,7 20
09.12.2019 03:00:00 5,3 3,0 22 12 SSW 975,4 22
09.12.2019 02:00:00 5,3 3,0 22 12 SSW 975,4 17
09.12.2019 01:00:00 5,3 3,0 25 14 SSW 974,9 24
09.12.2019 00:00:00 5,2 3,1 18 10 SSW 974,9 16
08.12.2019 23:00:00 5,4 3,1 29 16 SW 974,5 16
08.12.2019 22:00:00 5,1 3,1 22 12 SW 974,3 16
08.12.2019 21:00:00 4,9 3,4 22 12 SSW 974,2 14
08.12.2019 20:00:00 4,8 3,1 25 14 SW 974,0 20
08.12.2019 19:00:00 4,8 3,3 25 14 SW 973,7 27
08.12.2019 18:00:00 5,2 4,0 25 14 WSW 973,5 35
08.12.2019 17:00:00 5,7 4,7 29 16 SW 972,5 40
08.12.2019 16:00:00 6,9 6,0 29 16 SW 971,5 35
08.12.2019 15:00:00 6,8 6,8 25 14 S 970,8 5
08.12.2019 14:00:00 6,3 6,3 22 12 S 971,7 12
08.12.2019 13:00:00 5,6 5,6 25 14 S 973,2 5
08.12.2019 12:00:00 4,7 4,7 18 10 SSE 975,0 5
08.12.2019 11:00:00 2,5 2,5 18 10 SE 977,3 7
08.12.2019 10:00:00 0,7 0,7 18 10 ESE 980,0 4,0
08.12.2019 09:00:00 0,0 0,0 11 6 ESE 983,3 0,7
08.12.2019 08:00:00 -1,3 -1,3 11 6 E 986,2 1,0
08.12.2019 07:00:00 -1,6 -1,9 7 4 E 988,4 1,3
08.12.2019 06:00:00 -1,2 -2,0 7 4 SSE 990,4 50
08.12.2019 05:00:00 -2,8 -3,3 7 4 S 991,7 45
08.12.2019 04:00:00 -3,5 -3,8 7 4 SSW 992,7 50
08.12.2019 03:00:00 -2,6 -3,1 7 4 SSW 993,9 50
08.12.2019 02:00:00 -3,9 -4,2 7 4 SW 994,4 50
08.12.2019 01:00:00 -2,9 -3,6 7 4 SSW 995,3 50
08.12.2019 00:00:00 -1,5 -2,1 4 2 SW 995,5 50
07.12.2019 23:00:00 -1,8 -2,2 7 4 WSW 995,5 50
07.12.2019 22:00:00 -0,8 -1,6 11 6 SW 995,5 50
07.12.2019 21:00:00 -1,3 -1,6 4 2 SW 995,2 50
07.12.2019 20:00:00 -0,2 -1,0 7 4 W 994,7 50
07.12.2019 19:00:00 0,3 -0,6 14 8 W 994,4 50
07.12.2019 18:00:00 0,0 0,0 7 4 WSW 993,6 50
07.12.2019 17:00:00 0,7 0,4 14 8 W 992,7 50
07.12.2019 16:00:00 0,9 0,6 11 6 WNW 991,7 50
07.12.2019 15:00:00 1,3 1,0 11 6 WNW 990,8 50
07.12.2019 14:00:00 2,4 1,7 14 8 WNW 989,9 50
07.12.2019 13:00:00 2,2 1,8 14 8 W 988,9 30
07.12.2019 12:00:00 2,5 2,2 18 10 WNW 987,9 50
07.12.2019 11:00:00 2,4 2,4 14 8 W 987,6 19
07.12.2019 10:00:00 2,4 2,4 7 4 WNW 987,0 24
07.12.2019 09:00:00 2,3 2,3 7 4 WNW 986,4 19
07.12.2019 08:00:00 2,7 2,7 11 6 NW 985,7 4,5
07.12.2019 07:00:00 2,7 2,7 11 6 NW 984,9 50
07.12.2019 06:00:00 3,3 3,3 11 6 NW 984,6 25
07.12.2019 05:00:00 4,0 4,0 14 8 N 983,9 50
07.12.2019 04:00:00 4,4 4,4 14 8 NNW 983,9 5
07.12.2019 03:00:00 4,7 4,7 14 8 NNW 984,1 3,2
07.12.2019 02:00:00 4,9 4,9 4 2 NNE 984,4 3,1
07.12.2019 01:00:00 5,1 5,1 7 4 NE 985,2 2,3
07.12.2019 00:00:00 5,0 5,0 7 4 E 986,3 0,5
06.12.2019 23:00:00 4,9 4,9 7 4 E 987,3 0,5
06.12.2019 22:00:00 5,3 5,3 7 4 ESE 988,0 0,2
06.12.2019 21:00:00 5,2 5,2 7 4 SE 988,7 4,8
06.12.2019 20:00:00 4,8 4,8 7 4 S 989,1 7
06.12.2019 19:00:00 5,2 5,1 11 6 SSW 989,2 16
06.12.2019 18:00:00 5,5 5,2 18 10 SSW 989,4 20
06.12.2019 17:00:00 5,9 5,3 14 8 SW 989,2 15
06.12.2019 16:00:00 6,0 5,6 14 8 SSW 989,3 40

tt = temperature
td = dewpoint
ff = wind speed
dd = wind direction
ppp = reduced air pressure
vv = visibility

Next stations